Погода Аскино

Погода Аскино : погода сейчас, прогноз погоды и архив. Всё, что Вы хотите узнать о погоде Аскино!

Поиск расширенной информации на нашем сайте:

Другие новости

Новости СМИ2

Главная страница сайта

Новости сайта

02.10.2013

Напоминаем, что на нашем новом сайте вы можете получить высокодетализированные прогнозы погоды по пунктам России, СНГ и мира (включающие важные для авиации метеовеличины, такие как направление и скорость ветра, видимость, явления погоды, количество и форма облачности, нижняя и верхняя граница облачности), а также ознакомиться с разнообразными материалами по авиационной метеорологии и подборкой полезных ссылок на эту тему.

Сайт Метеоцентр.Азия посвящён разработке технологий оптимизации авиаметеорологического обслуживания, включая проектирование и перспективное создание нескольких автоматизированных авиаметеорологических систем:
- система выпуска высокодетальных прогностических карт явлений погоды для нижнего воздушного пространства по России и ближнему зарубежью;
- система верификации прогнозов TAF (выпускаемых синоптиками официальных АМСГ РФ и ближнего зарубежья) и AUTOTAF (выпускаемых сайтом Метеоцентр.Азия) - выявление ошибок, онлайн-сопоставление с фактической погодой METAR, автоматическое внесение коррективов в прогнозы при резком отклонении фактической погоды от прогноза, подсчёт оправдываемости прогнозов по элементам и в целом;
- система обработки, анализа и отображения авиаметеорологической информации для применения провайдерами метеорологической информации.


Погода Аскино - сегодня

Время (UTC), дата Ветер
(°,м/с) 
Видим.   Явления Облачность Т
(°С)
Тd
(°С)
f(%) Тe
(°С)
Pmin
(гПа)
dP
(гПа)
Po
(мм)
O2
(г/м3)
Тmin Tmax R s Состояние
почвы
12 21.04.17 250 (З) 8{15}  4000 м  слаб. ливневой снег  9/6 600 м кучево-дожд., средняя 
[Cb calv|Ac trans]
-0.3 -4.9 71 -5  1011.6  1.1  739  299           
15 21.04.17 260 (З) 6{12}  20000 м  {ливн. осадки}  10/8 600 м средняя 
[Cu med, cong|Ac As]
+0.1 -5.9 64 -3  1012.6  740  299    +0.9  0.5     
18 21.04.17 230 (ЮЗ) н/о  {ливн. осадки}  8/4 600 м средняя 
[Cu med, cong|Ac trans]
-0.6 -5.5 69 -3  1013.5  0.8  741  300           
21 21.04.17 240 (ЮЗ) н/о    3/0 средняя 
[Ac cuf]
-1.8 -7 68 -5  1014  0.4  741  301           
00 22.04.17 240 (ЮЗ) н/о    3/0 верхняя 
[Ci sp]
-2.9 -8.1 67 -6  1014.3  0.2  741  303           
03 22.04.17 170 (Ю) 20000 м    6/0 верхняя 
[Ci fib]
-1.3 -7.4 63 -3  1014.8  0.7  742  301  -3.1      12  сухой снег
50-90% 
06 22.04.17 200 (Ю) 6-11  20000 м    8/0 верхняя 
[Ci sp]
+3.7 -7.6 43 +1  1014.2  0.1  742  296           
09 22.04.17 190 (Ю) 7{12}  20000 м    9/6 1500 м верхняя 
[Cu med, cong|Ci sp]
+4.8 -7.3 41 +2  1013  -1.1  741  294           
12 22.04.17 190 (Ю) 5{11}  20000 м    9/0 средняя 
[Ac lent]
+4.6 -5.9 46 +2  1011.7  -1.3  740  294           
15 22.04.17 160 (Ю) 4000 м  слаб. снег  10/0 средняя 
[As op]
+0.7 -1.3 86 -1  1010.2  -1.8  738  297    +5.6  0.3     
18 22.04.17 100 (В) 4000 м  слаб. снег  10/10 300 м 
[Ns]
+0.8 -1.1 87 1007.4  -2.7  736  296           
21 22.04.17 090 (В) 4000 м  слаб. дождь{снег}  10/10 300 м 
[Ns]
+1.7 +0.4 91 1003.3  -3.9  734  294           
00 23.04.17 100 (В) 4000 м  слаб. дождь{снег}  10/10 300 м 
[Ns]
+2.4 +0.7 89 +2  1000.3  -2.9  731  292           
03 23.04.17 140 (ЮВ) 4000 м  слаб. дождь  10/10 300 м 
[Ns]
+2.3 +0.9 90 +1  999.6  -0.6  731  292  +0.5    мокрый или
старый снег
50-90% 
06 23.04.17 200 (Ю) 4000 м  слаб. морось{дождь}  10/10 300 м 
[St]
+2.8 +1.7 92 +1  1001.1  1.5  732  292           
09 23.04.17 250 (З) 10 км  {морось}  10/10 300 м 
[St]
+2.8 +1.4 90 -1  1004.7  3.5  735  293           
12 23.04.17 230 (ЮЗ) 5{10}  20000 м  {морось}  10/10 600 м 
[St]
+3.9 +0.9 81 +2  1007.7  737  293           
15 23.04.17 240 (ЮЗ) 6{10}  10 км    10/10 600 м 
[Sc]
+4.2 +0.9 79 +2  1009.5  1.7  738  293    +4.8  0.0     
18 23.04.17 210 (ЮЗ) н/о  {морось}  10/8 1000 м средняя 
[Cu hum|Ac und]
+2.5 +0.5 87 +2  1011.9  2.2  740  295           
21 23.04.17 190 (Ю) 4000 м  дымка  3/0 средняя 
[Ac lent]
+1.6 +0.2 90 -1  1012.8  0.8  740  297           
00 24.04.17 180 (Ю) 4000 м  дымка  3/0 средняя 
[Ac lent]
+1.7 +0.3 90 1013.1  0.3  741  296           
03 24.04.17 170 (Ю) 4000 м  дымка  10/0 средняя 
[Ac As]
+3.4 +1.6 88 +3  1013.6  0.6  741  295  +1.2    0.0  мокрый или
старый снег
50-90% 
06 24.04.17 130 (ЮВ) 10 км  слаб. дождь  10/3 600 м средняя 
[Cu hum|As op]
+5 +3.7 91 +5  1012.4  -1  740  292           
09 24.04.17 120 (ЮВ) 10 км  слаб. дождь  10/4 600 м средняя 
[Cu hum|As op]
+6.3 +5.1 92 +5  1010.5  -1.7  739  290           
12 24.04.17 140 (ЮВ) 10 км  слаб. дождь  10/10 300 м 
[Ns]
+6.1 +4.8 91 +5  1007.7  -2.7  737  290           
Время (UTC), дата Ветер
(°,м/с) 
Видим.   Явления Облачность Т
(°С)
Тd
(°С)
f(%) Тe
(°С)
Pmin
(гПа)
dP
(гПа)
Po
(мм)
O2
(г/м3)
Тmin Tmax R s Состояние
почвы

Для получения пояснительной информации подведите курсор к названию столбца.

ПОГОДА Аскино - архив

Всё, что Вы хотите узнать о погоде Аскино - удобно и подробно!

Выберите нужную дату (начиная с 1 января 2015* года) и нажмите кнопку "Найти".
Будут отображены архивные сводки погоды по пункту Аскино, начиная с указанной даты.


Отображать данные в формате CSV (для использования в таблицах Excel)


Внимание! Наш архив погоды предназначен исключительно для личного некоммерческого использования в познавательных целях. Если Вам необходимы официальные справки о состоянии погоды (для производственных, юридических, коммерческих и т.п. целей), обращайтесь в органы Росгидромета.

*Примечание: данная дата относится к архиву по метеостанциям СССР (Россия, СНГ, Балтия).
Архив по метеостанциям Зарубежной Европы и Азии (кроме Китая) хранится 10 дней, по другим регионам земного шара (Китай, Африка, Америка, Австралия, Океания) - 1 день.

Аскино - район местоположения метеостанции


Название, широта, долгота, высота метеостанции:
Аскино 56.1°ш. 56.6°д. 207 м над ур. моря [Российская Федерация]

Дополнительная информация

В oтличие oт бoльшинства пoгoдных сайтoв мы публикуем пoдрoбную метеoинфoрмацию в детальнoм прoфессиoнальнoм фoрмате.

Характеристики температуры и влажнoсти вoздуха измеряются на высoте 2 м в тени вдали oт зданий и деревьев.
Скoрoсть ветра измеряется на высoте 10 м (на урoвне рoста челoвека скoрoсть ветра ниже в 1.5-2 раза). Если метеoстанция нахoдится в гoрoде или в лесу, тo скoрoсть ветра занижена на 2-4 м/с пo сравнению с oткрытым местoм. Скoрoсть ветра над акватoриями крупных рек и oзёр, а также на вершинах хoлмoв на 2-5 м/с выше, чем в oбычных услoвиях.
Атмoсфернoе давление в разных тoчках местнoсти мoжет значительнo oтличаться oт давления на метеoстанции, в зависимoсти oт услoвий рельефа (при пoдъёме на 10 м давление пoнижается примернo на 1 мм рт.ст.).